Regional Weather Roundup
Issued by NWS

Home | Current Version | Previous Version | Text Only | Print | Product List | Glossary On
Versions: 1 2 3 4 5 6 7 8 9 10 11 12 13 14 15 16 17 18 19 20 21 22 23 24 25 26 27 28 29 30 31 32 33 34 35 36 37 38 39 40 41 42 43 44 45 46 47 48 49 50
000
ASUS46 KPQR 011610
RWROR

OREGON REGIONAL WEATHER ROUNDUP
NATIONAL WEATHER SERVICE PORTLAND OR
900 AM PDT SUN MAY 01 2016

NOTE: "FAIR" INDICATES FEW OR NO CLOUDS BELOW 12,000 FEET WITH
NO SIGNIFICANT WEATHER AND/OR OBSTRUCTIONS TO VISIBILITY.

ORZ001>013-011700-
NORTHWEST OREGON


CITY           SKY/WX    TMP DP  RH WIND       PRES   REMARKS
ASTORIA        SUNNY     59  52  77 CALM      30.11F HAZE
NEWPORT        SUNNY     61  46  59 E14         N/A
PORTLAND       MOSUNNY   57  44  62 N5        30.13F
VANCOUVER WA   SUNNY     58  45  62 NW6       30.12F
SCAPPOOSE      SUNNY     59  49  69 VRB6      30.12F
HILLSBORO      SUNNY     58  43  57 CALM      30.12F
AURORA         SUNNY     58  45  62 NE8       30.12F
MCMINNVILLE    SUNNY     59  46  62 CALM      30.12F
SALEM          SUNNY     57  45  64 NE12      30.10F
CORVALLIS        N/A     57  46  67 NE10      30.11S
EUGENE         SUNNY     56  47  71 CALM      30.09F
$$

ORZ021-028-011700-
SOUTHWEST OREGON


CITY           SKY/WX    TMP DP  RH WIND       PRES   REMARKS
NORTH BEND     SUNNY     57  54  88 NE3       30.03F
BROOKINGS      SUNNY     68  39  34 VRB6      29.91F
ROSEBURG       SUNNY     52  45  77 CALM      30.07F
SEXTON SUMMIT  SUNNY     53  38  56 E8        30.03F
MEDFORD        SUNNY     51  43  74 CALM      30.05F
$$

ORZ014>016-041-011700-
COLUMBIA GORGE


CITY           SKY/WX    TMP DP  RH WIND       PRES   REMARKS
TROUTDALE      SUNNY     55  47  74 W5        30.13F
THE DALLES     SUNNY     57  44  62 NE5       30.17F
$$

ORZ029>031-041-044-049-050-061>064-502-503-505>511-011700-
EASTERN OREGON


CITY           SKY/WX    TMP DP  RH WIND       PRES   REMARKS
REDMOND        SUNNY     52  39  61 CALM      30.15F
BEND           SUNNY     50  37  62 CALM      30.15F
PRINEVILLE     SUNNY     52  36  54 CALM      30.16F
KLAMATH FALLS  SUNNY     51  34  52 E13       30.08F
LAKEVIEW       SUNNY     48  34  57 N14       30.13S
HERMISTON      SUNNY     56  45  66 CALM      30.18F
PENDLETON      SUNNY     53  42  66 CALM      30.17F
JOHN DAY       SUNNY     49  38  65 CALM      30.17F
MEACHAM        SUNNY     53  38  56 E6        30.17F
LA GRANDE      SUNNY     50  36  57 N5        30.19R
BAKER CITY     SUNNY     50  39  66 NE3       30.19S
BURNS          SUNNY     52  34  50 NE7       30.16F
ROME             N/A     50  34  54 N8        30.14S
ONTARIO        SUNNY     58  41  53 VRB3      30.17S
$$



USA.gov is the U.S. government's official web portal to all federal, state and local government web resources and services.